QPF
0.00 0.00 0.00 0.00 0.00 0.00 0.00 0.00 0.00 0.04 0.04 0.05 0.01 0.03 0.07 0.02 0.05 0.01 0.00 0.00 0.00 0.00 0.00 0.00 0.00 0.00 0.00 0.00 0.00 0.00 0.00 0.00 0.00 0.00 0.00 0.00 0.00 0.00 0.00 0.01 0.07 0.05 0.02 0.00
0.00 0.00 0.00 0.00 0.00 0.00 0.00 0.00 0.00 0.01 0.00 0.04 0.03 0.03 0.07 0.05 0.05 0.00 0.00 0.00 0.00 0.00 0.00 0.00 0.00 0.00 0.00 0.00 0.00 0.00 0.00 0.00 0.00 0.00 0.00 0.00 0.00 0.00 0.00 0.00 0.02 0.02 0.00 0.00
0.00 0.00 0.00 0.00 0.00 0.00 0.00 0.00 0.01 0.01 0.00 0.01 0.03 0.01 0.04 0.03 0.03 0.00 0.00 0.00 0.00 0.00 0.00 0.00 0.00 0.00 0.00 0.00 0.00 0.00 0.00 0.00 0.00 0.00 0.00 0.00 0.00 0.00 0.00 0.00 0.00 0.00 0.00 0.00
0.00 0.00 0.00 0.00 0.00 0.00 0.00 0.00 0.00 0.00 0.00 0.01 0.04 0.00 0.00 0.03 0.02 0.00 0.00 0.00 0.00 0.00 0.00 0.00 0.00 0.00 0.00 0.00 0.00 0.00 0.00 0.00 0.00 0.00 0.00 0.00 0.00 0.00 0.00 0.00 0.00 0.00 0.00 0.00
0.00 0.00 0.00 0.00 0.00 0.00 0.00 0.00 0.00 0.01 0.01 0.00 0.02 0.02 0.00 0.02 0.01 0.00 0.00 0.00 0.00 0.00 0.00 0.00 0.00 0.00 0.00 0.00 0.00 0.00 0.00 0.00 0.00 0.00 0.00 0.00 0.00 0.00 0.00 0.00 0.00 0.00 0.00 0.00
0.00 0.00 0.00 0.00 0.00 0.00 0.00 0.02 0.04 0.01 0.00 0.00 0.01 0.01 0.00 0.00 0.01 0.00 0.00 0.00 0.00 0.00 0.00 0.00 0.00 0.00 0.00 0.00 0.00 0.00 0.00 0.00 0.00 0.00 0.00 0.00 0.00 0.00 0.00 0.00 0.00 0.00 0.00 0.00
0.00 0.00 0.00 0.00 0.00 0.00 0.00 0.00 0.00 0.00 0.00 0.00 0.00 0.01 0.00 0.00 0.00 0.00 0.00 0.00 0.00 0.00 0.00 0.00 0.00 0.00 0.00 0.00 0.00 0.00 0.00 0.00 0.00 0.00 0.00 0.00 0.00 0.00 0.00 0.00 0.00 0.00 0.00 0.00
0.00 0.00 0.00 0.00 0.00 0.00 0.00 0.00 0.00 0.00 0.00 0.01 0.01 0.01 0.00 0.00 0.00 0.00 0.00 0.00 0.00 0.00 0.00 0.00 0.00 0.00 0.00 0.00 0.00 0.00 0.00 0.00 0.00 0.00 0.00 0.00 0.00 0.00 0.00 0.00 0.00 0.00 0.00 0.00
0.00 0.00 0.00 0.00 0.00 0.00 0.00 0.00 0.00 0.00 0.00 0.02 0.01 0.00 0.00 0.00 0.00 0.00 0.00 0.00 0.00 0.00 0.00 0.00 0.00 0.00 0.00 0.00 0.00 0.00 0.00 0.00 0.00 0.00 0.00 0.00 0.00 0.00 0.00 0.00 0.00 0.00 0.00 0.00
0.00 0.00 0.00 0.00 0.00 0.00 0.00 0.00 0.00 0.00 0.01 0.01 0.00 0.00 0.00 0.00 0.00 0.00 0.00 0.00 0.00 0.00 0.00 0.00 0.00 0.00 0.00 0.00 0.00 0.00 0.00 0.00 0.00 0.00 0.00 0.00 0.00 0.00 0.00 0.00 0.00 0.00 0.00 0.00
0.00 0.00 0.00 0.00 0.00 0.00 0.00 0.00 0.00 0.00 0.00 0.00 0.00 0.00 0.00 0.00 0.00 0.00 0.00 0.00 0.00 0.00 0.00 0.00 0.00 0.00 0.00 0.00 0.00 0.00 0.00 0.00 0.00 0.00 0.00 0.00 0.00 0.00 0.00 0.00 0.00 0.00 0.00 0.00
0.00 0.00 0.00 0.00 0.00 0.00 0.00 0.00 0.00 0.00 0.00 0.00 0.00 0.00 0.00 0.00 0.00 0.00 0.00 0.00 0.00 0.00 0.00 0.00 0.00 0.00 0.00 0.00 0.00 0.00 0.00 0.00 0.00 0.00 0.00 0.00 0.00 0.00 0.00 0.00 0.00 0.00 0.00 0.01
0.00 0.00 0.00 0.00 0.00 0.00 0.00 0.00 0.00 0.00 0.00 0.00 0.00 0.00 0.00 0.00 0.00 0.00 0.00 0.00 0.00 0.00 0.00 0.00 0.00 0.00 0.00 0.00 0.00 0.00 0.00 0.00 0.00 0.00 0.00 0.00 0.00 0.00 0.00 0.05 0.12 0.03 0.02 0.05
0.00 0.00 0.00 0.00 0.00 0.00 0.00 0.00 0.00 0.00 0.00 0.00 0.00 0.00 0.00 0.00 0.00 0.00 0.00 0.00 0.00 0.00 0.00 0.00 0.00 0.00 0.00 0.00 0.00 0.00 0.00 0.00 0.00 0.00 0.00 0.00 0.00 0.00 0.00 0.02 0.03 0.03 0.01 0.00
0.00 0.00 0.00 0.00 0.00 0.00 0.00 0.00 0.00 0.00 0.00 0.00 0.00 0.00 0.00 0.00 0.00 0.00 0.00 0.00 0.00 0.00 0.00 0.00 0.00 0.00 0.00 0.00 0.00 0.00 0.00 0.00 0.00 0.00 0.00 0.00 0.00 0.00 0.00 0.00 0.00 0.00 0.00 0.01
0.00 0.00 0.00 0.00 0.00 0.00 0.00 0.00 0.00 0.00 0.00 0.00 0.00 0.00 0.00 0.00 0.00 0.00 0.00 0.00 0.00 0.00 0.00 0.00 0.00 0.00 0.00 0.00 0.00 0.00 0.00 0.00 0.00 0.00 0.01 0.02 0.02 0.00 0.02 0.02 0.02 0.04 0.04 0.02
0.00 0.00 0.00 0.00 0.01 0.03 0.00 0.00 0.00 0.00 0.00 0.00 0.00 0.00 0.00 0.00 0.00 0.00 0.00 0.00 0.00 0.00 0.00 0.00 0.00 0.00 0.00 0.00 0.00 0.00 0.02 0.07 0.16 0.16 0.09 0.04 0.03 0.03 0.14 0.12 0.06 0.05 0.09 0.11
0.00 0.00 0.00 0.00 0.00 0.01 0.00 0.00 0.01 0.00 0.00 0.01 0.01 0.00 0.00 0.00 0.00 0.01 0.00 0.00 0.00 0.00 0.00 0.00 0.00 0.00 0.01 0.00 0.06 0.10 0.13 0.22 0.22 0.17 0.10 0.05 0.04 0.06 0.05 0.04 0.02 0.01 0.04 0.11
0.00 0.00 0.00 0.00 0.00 0.00 0.00 0.00 0.00 0.01 0.02 0.02 0.01 0.00 0.00 0.00 0.00 0.00 0.00 0.00 0.00 0.00 0.00 0.00 0.00 0.00 0.00 0.01 0.05 0.17 0.12 0.09 0.08 0.08 0.05 0.05 0.06 0.09 0.10 0.07 0.02 0.04 0.02 0.02
0.00 0.00 0.00 0.00 0.00 0.00 0.00 0.00 0.00 0.02 0.03 0.00 0.02 0.03 0.00 0.00 0.00 0.00 0.00 0.00 0.00 0.00 0.00 0.00 0.00 0.00 0.00 0.02 0.05 0.09 0.09 0.07 0.06 0.06 0.06 0.07 0.08 0.08 0.04 0.04 0.07 0.08 0.06 0.03
0.00 0.00 0.01 0.00 0.00 0.00 0.00 0.00 0.01 0.05 0.00 0.00 0.00 0.00 0.00 0.00 0.00 0.00 0.00 0.00 0.01 0.00 0.00 0.00 0.00 0.00 0.00 0.00 0.00 0.02 0.02 0.02 0.07 0.05 0.06 0.06 0.07 0.07 0.05 0.09 0.10 0.03 0.04 0.02
0.00 0.00 0.00 0.00 0.01 0.00 0.00 0.00 0.02 0.01 0.02 0.03 0.04 0.00 0.00 0.00 0.00 0.00 0.00 0.00 0.02 0.02 0.00 0.05 0.02 0.00 0.03 0.01 0.03 0.02 0.06 0.02 0.03 0.01 0.02 0.01 0.02 0.07 0.08 0.08 0.06 0.03 0.00 0.00
0.00 0.00 0.00 0.00 0.00 0.00 0.00 0.00 0.01 0.00 0.00 0.02 0.01 0.00 0.00 0.00 0.00 0.00 0.00 0.00 0.00 0.01 0.00 0.00 0.02 0.00 0.01 0.02 0.02 0.02 0.04 0.02 0.03 0.00 0.01 0.01 0.03 0.06 0.02 0.00 0.01 0.00 0.00 0.00
0.00 0.00 0.00 0.00 0.00 0.00 0.03 0.03 0.03 0.01 0.01 0.02 0.03 0.01 0.00 0.00 0.00 0.00 0.00 0.00 0.00 0.00 0.00 0.00 0.00 0.00 0.01 0.01 0.00 0.01 0.02 0.01 0.00 0.01 0.02 0.06 0.05 0.03 0.01 0.00 0.00 0.00 0.00 0.00
0.00 0.00 0.00 0.00 0.00 0.00 0.01 0.05 0.04 0.05 0.03 0.03 0.10 0.07 0.00 0.00 0.00 0.00 0.00 0.00 0.00 0.00 0.00 0.00 0.00 0.00 0.00 0.00 0.00 0.00 0.00 0.00 0.00 0.01 0.01 0.04 0.05 0.03 0.03 0.01 0.00 0.00 0.00 0.00
0.00 0.00 0.00 0.00 0.00 0.00 0.00 0.00 0.01 0.01 0.02 0.01 0.02 0.05 0.00 0.00 0.00 0.00 0.00 0.00 0.00 0.00 0.00 0.00 0.00 0.00 0.00 0.00 0.00 0.00 0.00 0.00 0.00 0.00 0.00 0.00 0.00 0.00 0.01 0.00 0.01 0.00 0.00 0.00
MSLP
1011.02 1011.47 1011.55 1011.87 1011.92 1012.00 1012.40 1012.94 1013.68 1014.28 1014.65 1014.51 1014.71 1014.57 1014.32 1014.52 1014.70 1014.54 1014.51 1014.86 1015.19 1015.35 1015.56 1016.15 1016.67 1017.00 1017.54 1017.96 1018.38 1018.79 1018.94 1019.24 1019.65 1019.96 1020.40 1020.79 1021.09 1021.15 1021.12 1021.12 1021.12 1021.28 1021.44 1021.77
1011.48 1011.44 1011.22 1011.21 1011.48 1011.71 1012.10 1012.75 1013.72 1014.39 1014.32 1014.71 1014.85 1014.66 1014.50 1014.48 1014.62 1014.47 1014.16 1014.48 1014.76 1015.50 1015.74 1016.00 1016.55 1016.88 1017.30 1017.91 1018.36 1018.82 1018.90 1019.18 1019.49 1019.52 1019.94 1020.28 1020.65 1021.07 1021.02 1021.16 1021.19 1021.20 1021.50 1021.65
1011.15 1011.04 1010.70 1010.94 1011.17 1011.58 1011.96 1012.37 1013.26 1013.75 1014.34 1014.43 1014.68 1014.57 1014.72 1014.82 1015.03 1014.48 1014.02 1013.86 1014.31 1014.75 1015.22 1015.64 1016.22 1016.66 1017.18 1017.62 1018.06 1018.59 1018.96 1019.12 1019.43 1019.57 1019.85 1020.38 1020.62 1021.01 1021.27 1021.39 1021.50 1021.45 1021.48 1021.44
1010.83 1010.44 1010.57 1010.75 1011.02 1011.33 1011.86 1011.88 1012.42 1013.83 1014.35 1014.75 1014.75 1015.20 1014.56 1014.37 1014.53 1014.53 1013.90 1013.87 1014.09 1014.36 1014.89 1015.43 1015.91 1016.37 1016.79 1017.20 1017.87 1018.30 1018.89 1019.27 1019.42 1019.50 1019.70 1020.13 1020.44 1020.93 1021.10 1021.25 1021.38 1021.20 1021.36 1021.32
1010.67 1010.27 1010.32 1010.63 1010.42 1010.84 1011.66 1012.12 1012.76 1013.88 1014.51 1015.10 1015.26 1015.74 1013.79 1013.88 1013.85 1013.84 1013.61 1013.60 1013.68 1013.83 1014.30 1014.86 1015.30 1015.59 1016.18 1017.02 1017.43 1017.99 1018.69 1019.15 1019.42 1019.48 1019.57 1019.89 1020.37 1020.51 1020.79 1021.12 1021.48 1021.51 1021.34 1021.34
1010.56 1010.03 1010.04 1010.15 1010.43 1010.62 1011.70 1012.84 1013.94 1014.56 1015.26 1015.57 1015.65 1015.42 1013.54 1013.19 1012.31 1012.39 1013.04 1013.09 1013.07 1013.44 1013.88 1014.50 1015.13 1015.68 1016.28 1016.86 1017.30 1017.81 1018.40 1018.86 1019.32 1019.51 1019.60 1019.82 1020.17 1020.49 1020.83 1021.14 1021.34 1021.50 1021.57 1021.47
1010.79 1010.24 1010.25 1010.14 1011.06 1011.60 1012.08 1013.31 1015.14 1015.86 1015.98 1016.02 1015.04 1014.66 1012.52 1011.27 1010.95 1011.00 1011.91 1012.28 1012.46 1012.80 1013.52 1014.34 1015.02 1015.48 1016.02 1016.44 1016.87 1017.53 1018.12 1018.59 1019.00 1019.44 1019.55 1019.70 1019.97 1020.26 1020.48 1020.75 1020.98 1021.37 1021.52 1021.53
1011.60 1010.93 1010.41 1010.10 1010.46 1010.96 1012.15 1012.82 1013.81 1014.77 1015.66 1015.13 1014.36 1013.37 1011.03 1009.97 1009.79 1010.09 1010.58 1011.38 1012.00 1012.34 1012.88 1013.49 1014.14 1014.79 1015.42 1015.95 1016.45 1017.06 1017.64 1018.24 1018.70 1019.10 1019.40 1019.62 1019.81 1020.03 1020.30 1020.48 1020.82 1020.95 1021.11 1021.08
1011.59 1010.88 1009.88 1009.48 1009.50 1010.00 1011.85 1012.08 1012.23 1013.38 1014.15 1013.90 1013.70 1012.65 1010.81 1010.00 1009.18 1009.31 1009.72 1010.54 1011.20 1011.63 1012.08 1012.67 1013.50 1014.24 1015.05 1015.59 1016.04 1016.41 1017.14 1017.82 1018.27 1018.67 1019.10 1019.46 1019.73 1019.97 1020.05 1020.19 1020.51 1020.60 1020.69 1020.75
1011.70 1011.50 1010.24 1009.44 1009.46 1009.91 1010.30 1010.94 1011.88 1012.41 1013.22 1013.76 1013.46 1012.83 1011.10 1009.59 1009.02 1009.08 1009.64 1009.71 1009.74 1010.48 1011.27 1012.10 1012.79 1013.55 1014.22 1014.96 1015.58 1016.13 1016.50 1017.02 1017.72 1018.39 1018.79 1019.14 1019.41 1019.72 1019.94 1020.06 1020.16 1020.17 1020.22 1020.38
1011.91 1012.25 1011.30 1010.32 1010.21 1010.13 1010.40 1010.83 1011.40 1011.79 1012.28 1013.06 1013.08 1011.80 1010.28 1009.78 1009.10 1009.24 1009.47 1009.30 1009.27 1010.00 1010.80 1011.52 1012.25 1012.88 1013.68 1014.45 1015.23 1015.66 1016.26 1016.69 1017.29 1017.88 1018.45 1018.87 1019.14 1019.44 1019.70 1019.82 1019.89 1019.82 1019.88 1019.95
1012.42 1012.94 1012.67 1011.63 1010.68 1010.58 1010.47 1010.98 1011.35 1012.08 1012.60 1012.67 1012.45 1011.48 1010.81 1010.31 1009.58 1009.47 1009.46 1009.27 1009.01 1009.60 1010.38 1011.04 1011.54 1012.55 1013.48 1014.14 1014.90 1015.41 1015.99 1016.50 1016.77 1017.25 1017.78 1018.30 1018.76 1019.07 1019.38 1019.60 1019.70 1019.76 1019.72 1019.50
1012.53 1013.32 1013.32 1012.33 1011.84 1011.32 1011.31 1011.52 1011.87 1012.09 1011.95 1012.40 1012.41 1011.80 1011.44 1011.32 1010.98 1010.62 1010.46 1009.98 1009.64 1009.91 1010.46 1011.19 1011.93 1012.40 1013.03 1013.74 1014.32 1014.95 1015.43 1015.73 1016.36 1016.94 1017.42 1017.92 1018.26 1018.78 1019.08 1019.18 1019.34 1019.49 1019.54 1019.50
1012.68 1013.99 1013.92 1013.54 1012.79 1012.30 1012.11 1012.03 1012.17 1012.36 1012.56 1012.60 1012.04 1012.12 1012.22 1012.14 1011.96 1011.60 1011.34 1011.09 1010.60 1010.22 1010.59 1011.15 1012.07 1012.38 1012.57 1013.27 1013.63 1014.31 1015.03 1015.31 1015.88 1016.50 1017.07 1017.46 1017.73 1018.28 1018.58 1018.94 1019.32 1019.39 1019.43 1019.46
1013.52 1014.45 1014.38 1013.63 1013.12 1012.78 1012.71 1012.72 1012.44 1012.54 1012.79 1012.60 1012.56 1012.64 1012.84 1012.94 1012.83 1012.48 1012.14 1011.70 1011.36 1011.08 1011.01 1011.14 1011.87 1012.57 1012.69 1013.14 1013.51 1014.01 1014.59 1014.97 1015.42 1016.03 1016.56 1017.01 1017.45 1017.77 1018.27 1018.63 1019.00 1019.17 1019.25 1019.28
1014.61 1015.06 1015.00 1014.30 1013.57 1013.28 1013.33 1013.08 1012.66 1012.91 1013.08 1013.06 1012.96 1013.07 1013.16 1013.28 1013.17 1013.09 1012.69 1012.37 1012.06 1011.74 1011.47 1011.33 1011.72 1012.24 1012.60 1012.85 1013.07 1013.52 1014.04 1014.50 1014.90 1015.55 1016.08 1016.52 1017.12 1017.59 1018.03 1018.33 1018.74 1019.00 1019.02 1019.22
1015.44 1015.71 1016.08 1015.33 1014.48 1014.32 1013.97 1013.34 1012.99 1012.82 1013.20 1013.52 1013.48 1013.22 1013.42 1013.73 1013.64 1013.62 1013.45 1013.15 1012.60 1012.39 1012.46 1012.53 1012.48 1012.55 1012.80 1013.04 1013.29 1013.85 1014.33 1014.63 1015.05 1015.56 1015.95 1016.48 1016.82 1017.38 1017.91 1018.31 1018.57 1019.03 1019.27 1019.24
1015.93 1016.49 1016.60 1016.35 1015.35 1015.06 1013.83 1013.30 1013.08 1012.98 1013.11 1013.41 1013.42 1013.46 1013.56 1013.79 1013.96 1014.12 1013.97 1013.69 1013.49 1013.27 1013.08 1013.07 1013.07 1013.20 1013.20 1013.36 1013.86 1014.26 1014.59 1015.12 1015.50 1016.03 1016.28 1016.68 1017.17 1017.62 1017.86 1018.16 1018.31 1018.80 1019.12 1019.51
1016.22 1016.76 1017.33 1017.11 1016.28 1015.35 1013.84 1013.20 1013.07 1013.16 1012.75 1013.27 1013.49 1013.38 1013.64 1013.92 1014.20 1014.36 1014.49 1014.54 1014.37 1014.22 1013.90 1013.67 1013.46 1013.35 1013.45 1013.56 1013.97 1014.59 1015.04 1015.30 1015.73 1016.14 1015.79 1016.72 1016.85 1016.96 1018.06 1018.25 1018.42 1018.58 1019.16 1019.48
1016.70 1016.91 1017.24 1017.68 1016.75 1015.43 1013.66 1013.03 1012.79 1012.99 1012.99 1012.60 1012.86 1013.14 1013.72 1014.18 1014.66 1014.98 1014.95 1014.93 1014.94 1014.84 1014.60 1014.29 1014.15 1014.16 1014.16 1014.42 1014.58 1014.64 1014.88 1015.31 1015.52 1015.45 1015.01 1016.28 1016.96 1017.58 1017.87 1018.14 1018.28 1018.58 1019.08 1019.61
1017.29 1017.63 1017.65 1017.47 1016.69 1014.99 1013.56 1013.10 1013.01 1013.55 1013.01 1012.16 1012.42 1012.96 1013.71 1014.18 1015.03 1015.35 1015.28 1015.28 1015.41 1015.30 1015.11 1015.01 1014.86 1015.06 1015.20 1015.25 1015.23 1015.60 1015.72 1014.65 1015.41 1016.04 1016.57 1016.83 1017.02 1017.45 1017.80 1018.00 1018.16 1018.91 1019.36 1020.12
1017.41 1017.64 1017.68 1017.64 1016.77 1015.19 1013.84 1013.60 1013.65 1013.23 1012.88 1012.71 1013.15 1013.54 1013.94 1014.32 1015.16 1015.53 1015.64 1015.64 1015.81 1015.90 1015.82 1015.68 1015.56 1015.90 1016.00 1015.72 1015.72 1016.02 1016.50 1015.62 1015.61 1016.29 1016.62 1016.78 1017.85 1017.93 1018.16 1018.37 1018.84 1019.30 1019.84 1020.34
1017.37 1016.73 1016.71 1016.75 1015.43 1014.40 1013.95 1013.68 1013.20 1013.05 1012.77 1013.00 1013.48 1013.99 1014.54 1014.69 1015.01 1015.54 1016.14 1016.02 1016.35 1016.45 1016.48 1016.38 1016.37 1016.29 1016.19 1016.23 1016.29 1016.47 1016.86 1016.70 1016.97 1017.02 1017.68 1018.24 1018.55 1018.67 1018.66 1018.74 1019.00 1019.53 1020.16 1020.74
1016.34 1016.22 1016.30 1015.99 1014.64 1014.03 1013.53 1013.16 1013.12 1012.74 1012.73 1012.93 1013.66 1014.22 1014.59 1014.92 1014.90 1015.64 1016.98 1016.92 1017.00 1017.06 1017.16 1017.10 1016.97 1017.22 1017.08 1017.24 1017.55 1017.72 1017.62 1017.62 1017.80 1018.35 1019.06 1019.45 1019.75 1019.53 1019.90 1019.90 1020.06 1020.35 1020.78 1021.60
1015.68 1015.82 1015.69 1015.35 1014.37 1013.87 1013.24 1013.00 1013.06 1013.08 1013.04 1013.21 1013.88 1014.44 1014.96 1015.28 1015.79 1016.70 1017.40 1017.28 1017.51 1017.70 1017.97 1018.06 1018.05 1018.12 1017.97 1018.13 1018.31 1018.22 1018.17 1018.28 1018.56 1019.12 1019.38 1020.06 1020.36 1020.55 1021.02 1021.52 1021.76 1021.78 1022.37 1022.52
1014.67 1014.30 1014.30 1013.88 1013.13 1012.97 1012.75 1012.42 1012.83 1012.97 1013.36 1013.66 1013.96 1014.76 1015.56 1016.02 1016.48 1016.95 1017.40 1017.70 1017.91 1017.94 1018.23 1018.48 1018.60 1018.52 1018.82 1019.00 1018.94 1018.84 1018.61 1018.67 1019.11 1019.86 1020.08 1020.54 1020.64 1020.91 1021.17 1021.60 1022.35 1022.64 1022.73 1022.80
Thickness
5719 5709 5709 5718 5724 5726 5724 5720 5715 5718 5723 5724 5722 5728 5735 5741 5742 5746 5752 5751 5752 5753 5758 5756 5756 5757 5754 5752 5750 5748 5748 5747 5743 5742 5738 5737 5737 5739 5741 5743 5745 5745 5743 5741
5701 5700 5720 5729 5728 5729 5726 5716 5705 5711 5722 5721 5716 5726 5732 5737 5737 5746 5754 5753 5755 5752 5753 5757 5756 5757 5756 5753 5752 5747 5750 5750 5747 5748 5745 5744 5743 5742 5745 5746 5747 5748 5744 5745
5697 5715 5725 5725 5725 5720 5721 5717 5708 5713 5718 5720 5719 5716 5722 5729 5732 5745 5756 5763 5760 5756 5755 5759 5757 5757 5757 5755 5754 5751 5749 5751 5750 5750 5749 5745 5745 5744 5745 5746 5747 5747 5748 5750
5705 5720 5719 5716 5717 5722 5711 5732 5728 5714 5706 5699 5720 5690 5711 5725 5728 5737 5751 5757 5759 5759 5761 5759 5759 5758 5759 5759 5757 5756 5751 5750 5751 5753 5752 5749 5747 5743 5747 5749 5749 5751 5751 5753
5698 5715 5713 5708 5722 5728 5719 5730 5722 5716 5702 5700 5698 5688 5712 5723 5720 5732 5745 5752 5759 5762 5763 5761 5763 5766 5765 5761 5760 5759 5755 5752 5752 5753 5754 5754 5752 5753 5753 5752 5750 5750 5753 5753
5703 5724 5721 5721 5727 5731 5730 5713 5706 5700 5689 5679 5690 5686 5702 5712 5729 5741 5745 5751 5761 5762 5764 5763 5764 5765 5763 5762 5759 5759 5757 5755 5753 5753 5755 5755 5754 5754 5753 5751 5751 5751 5752 5753
5694 5710 5719 5726 5710 5719 5713 5694 5660 5662 5664 5669 5694 5689 5714 5739 5746 5747 5750 5754 5760 5764 5763 5761 5760 5762 5763 5762 5763 5761 5759 5756 5756 5755 5756 5756 5756 5756 5756 5755 5755 5752 5752 5753
5670 5678 5706 5724 5715 5708 5701 5698 5668 5662 5660 5675 5697 5691 5717 5749 5756 5754 5760 5759 5759 5762 5766 5767 5766 5765 5765 5765 5766 5765 5762 5760 5759 5757 5757 5757 5757 5757 5758 5759 5757 5757 5755 5757
5674 5687 5721 5728 5733 5728 5704 5696 5715 5686 5685 5685 5693 5706 5731 5747 5754 5753 5760 5761 5762 5765 5770 5771 5771 5769 5766 5766 5766 5768 5765 5762 5762 5761 5760 5759 5758 5757 5758 5760 5760 5760 5759 5757
5691 5678 5713 5724 5733 5730 5717 5722 5699 5696 5674 5671 5687 5689 5703 5738 5747 5752 5755 5766 5774 5773 5772 5772 5771 5772 5771 5770 5769 5770 5771 5768 5765 5763 5762 5761 5761 5760 5759 5759 5760 5762 5762 5760
5690 5679 5694 5713 5706 5709 5709 5705 5706 5708 5702 5682 5682 5701 5736 5744 5751 5754 5755 5767 5775 5773 5771 5772 5772 5774 5772 5771 5771 5771 5770 5770 5767 5765 5764 5762 5761 5760 5761 5761 5762 5764 5764 5764
5686 5667 5670 5695 5711 5711 5717 5710 5702 5691 5699 5695 5702 5716 5733 5743 5756 5758 5757 5763 5775 5776 5773 5771 5774 5771 5769 5769 5768 5769 5768 5766 5769 5769 5768 5765 5763 5762 5761 5761 5762 5763 5764 5766
5685 5660 5654 5677 5689 5703 5698 5704 5699 5694 5700 5695 5699 5715 5736 5741 5747 5750 5752 5758 5763 5767 5767 5765 5762 5764 5766 5767 5768 5767 5769 5771 5769 5767 5766 5764 5764 5762 5760 5761 5761 5761 5762 5764
5680 5651 5659 5652 5671 5685 5690 5695 5696 5693 5688 5694 5705 5708 5721 5731 5737 5743 5746 5748 5756 5760 5760 5758 5755 5759 5766 5770 5772 5770 5767 5770 5769 5767 5765 5762 5763 5761 5761 5760 5758 5758 5759 5760
5666 5656 5661 5669 5676 5685 5683 5685 5691 5694 5692 5697 5701 5705 5715 5721 5727 5734 5742 5749 5752 5754 5755 5758 5755 5754 5762 5765 5769 5770 5768 5769 5770 5766 5763 5761 5760 5762 5760 5758 5756 5756 5758 5759
5651 5647 5652 5663 5673 5676 5672 5677 5686 5688 5691 5694 5698 5700 5714 5719 5725 5729 5738 5743 5745 5749 5754 5758 5757 5760 5762 5765 5768 5769 5767 5767 5767 5765 5763 5761 5758 5757 5756 5755 5754 5753 5755 5754
5643 5635 5631 5639 5652 5651 5652 5670 5676 5685 5688 5685 5686 5696 5707 5710 5717 5721 5726 5733 5741 5747 5745 5745 5749 5751 5755 5758 5763 5760 5760 5760 5759 5758 5758 5756 5755 5753 5750 5749 5749 5746 5746 5749
5633 5626 5619 5624 5637 5627 5655 5670 5680 5679 5684 5684 5686 5691 5701 5706 5710 5713 5719 5724 5729 5735 5741 5742 5743 5746 5751 5754 5753 5752 5753 5749 5748 5746 5745 5745 5744 5742 5743 5742 5742 5741 5741 5739
5626 5619 5609 5613 5614 5630 5654 5665 5667 5670 5680 5685 5686 5695 5698 5700 5704 5707 5711 5714 5718 5722 5730 5735 5740 5746 5747 5748 5746 5742 5741 5741 5740 5738 5742 5738 5734 5731 5730 5732 5734 5736 5732 5732
5620 5614 5615 5602 5617 5617 5644 5664 5674 5672 5658 5687 5688 5693 5692 5693 5687 5694 5702 5706 5708 5714 5719 5725 5731 5735 5737 5736 5736 5736 5733 5732 5732 5733 5732 5729 5726 5725 5726 5726 5727 5727 5724 5720
5605 5602 5607 5602 5606 5623 5646 5660 5666 5643 5659 5689 5693 5690 5687 5686 5684 5688 5696 5699 5701 5705 5711 5715 5719 5719 5719 5723 5725 5719 5718 5730 5722 5720 5708 5715 5717 5714 5717 5718 5719 5713 5712 5707
5608 5600 5599 5596 5600 5615 5645 5651 5641 5654 5668 5676 5678 5679 5682 5684 5681 5682 5686 5691 5693 5695 5699 5704 5707 5706 5707 5711 5712 5707 5702 5715 5717 5711 5708 5707 5703 5705 5707 5707 5704 5701 5699 5697
5601 5610 5606 5606 5611 5632 5638 5642 5651 5656 5665 5668 5668 5671 5673 5677 5676 5677 5677 5682 5685 5687 5689 5692 5694 5697 5700 5701 5702 5701 5696 5699 5698 5698 5694 5692 5692 5693 5696 5696 5696 5694 5690 5687
5617 5612 5611 5615 5628 5632 5641 5647 5648 5658 5665 5666 5665 5666 5668 5668 5672 5670 5663 5670 5674 5675 5677 5682 5685 5685 5688 5689 5685 5684 5685 5686 5687 5682 5679 5678 5678 5683 5681 5683 5685 5685 5685 5680
5617 5615 5612 5614 5625 5630 5640 5641 5643 5648 5654 5658 5658 5658 5659 5660 5658 5656 5655 5661 5662 5664 5664 5666 5669 5671 5673 5675 5673 5674 5677 5678 5676 5673 5673 5668 5668 5668 5665 5663 5664 5666 5661 5661
5621 5623 5617 5618 5634 5635 5638 5646 5646 5647 5646 5649 5652 5651 5650 5649 5647 5647 5648 5649 5650 5654 5654 5654 5656 5658 5658 5659 5662 5663 5666 5667 5665 5659 5659 5656 5656 5657 5657 5656 5651 5650 5651 5651